Tracking 18856 objects as of 12-Dec-2017
HD Live streaming from Space Station
objects crossing your sky now

UNHA 3 R/B

Track UNHA 3 R/B now!
10-day predictions


NORAD ID: 39027
Int'l Code: 2012-072B
Perigee: 488.1 km
Apogee: 568.4 km
Inclination: 97.3 °
Period: 95.1 minutes
Semi major axis: 6899 km
RCS: 1.274 m2 (large)
Launch date: December 12, 2012
Source: North Korea (NKOR)
Launch site: Yunsong, DPRK (YUN)

Note: This is a ROCKET BODY
aabbcc
Your satellite tracking list
Your tracking list is empty




NASA's NSSDC Master Catalog

Two Line Element Set (TLE):
1 39027U 12072B   17345.56417600 +.00000765 +00000-0 +42823-4 0  9993
2 39027 097.2649 342.7022 0058165 338.8851 020.9981 15.14963242243859
Source of the keplerian elements: AFSPC